Park Rapids, MN

1:51 PM CST on February 25, 2018 (GMT -0600)
Park Rapids Municipal

Weather History for KPKD - November, 2011

Change the Weather History Date:

Wednesday, November 30, 2011

  Actual Average Record
Temperature  
Mean Temperature 27 °F -  
Max Temperature 33 °F 28 °F 49 °F (1951)
Min Temperature 21 °F 10 °F -28 °F (1964)
Degree Days  
Heating Degree Days 38    
Moisture  
Dew Point 23 °F    
Average Humidity 80    
Maximum Humidity 88    
Minimum Humidity 64    
Precipitation  
Precipitation 0.00 in - - ()
Sea Level Pressure  
Sea Level Pressure 30.00 in    
Wind  
Wind Speed 5 mph (NNE)    
Max Wind Speed 12 mph    
Max Gust Speed -    
Visibility 7 miles    
Events Snow    
Averages and records for this station are not official NWS values.
T = Trace of Precipitation, MM = Missing Value Source: NWS Daily Summary

Daily Weather History Graph

Daily Weather History Graph

Search for Another Location

Airport or City:

Trip Planner

Search our weather history database for the weather conditions in past years. The results will help you decide how hot, cold, wet, or windy it might be!

Date:

Astronomy

Nov. 30, 2011 Rise Set
Actual Time 7:43 AM CST 4:34 PM CST
Civil Twilight 7:08 AM CST 5:08 PM CST
Nautical Twilight 6:30 AM CST 5:46 PM CST
Astronomical Twilight 5:54 AM CST 6:23 PM CST
Moon 11:50 AM CST (11/30) 10:45 PM CST (11/30)
Length of Visible Light 9h 59m
Length of Day
8h 50m
Waxing Crescent, 34% of the Moon is Illuminated
Nov 30
Waxing Crescent
Dec 2
First Quarter
Dec 10
Full
Dec 17
Last Quarter
Dec 24
New

Hourly Weather History & Observations

Time (CST) Temp. Windchill Dew Point Humidity Pressure Visibility Wind Dir Wind Speed Gust Speed Precip Events Conditions
12:53 AM 21.9 °F 15.7 °F 15.1 °F 75% 29.99 in 10.0 mi SSE 4.6 mph - N/A   Clear
1:53 AM 24.1 °F 18.2 °F 18.0 °F 77% 29.96 in 10.0 mi SSW 4.6 mph - N/A   Clear
2:53 AM 26.1 °F 21.9 °F 18.0 °F 71% 29.96 in 10.0 mi SW 3.5 mph - N/A   Clear
3:53 AM 26.1 °F 20.5 °F 18.0 °F 71% 29.93 in 10.0 mi SSE 4.6 mph - N/A   Partly Cloudy
4:53 AM 25.0 °F 19.3 °F 18.0 °F 75% 29.93 in 10.0 mi SSE 4.6 mph - N/A   Mostly Cloudy
5:53 AM 26.1 °F - 18.0 °F 71% 29.92 in 10.0 mi Calm Calm - N/A   Scattered Clouds
6:53 AM 26.1 °F 21.9 °F 19.9 °F 78% 29.91 in 10.0 mi SSE 3.5 mph - N/A   Overcast
7:53 AM 27.0 °F - 19.0 °F 72% 29.92 in 10.0 mi Calm Calm - N/A   Partly Cloudy
8:53 AM 27.0 °F - 19.9 °F 75% 29.93 in 10.0 mi Calm Calm - N/A   Overcast
9:53 AM 28.4 °F - 21.2 °F 74% 29.87 in 10.0 mi Calm Calm - N/A   Overcast
10:53 AM 30.9 °F 26.2 °F 21.9 °F 69% 29.95 in 10.0 mi North 4.6 mph - N/A   Overcast
11:53 AM 33.1 °F 27.7 °F 21.9 °F 64% 29.94 in 10.0 mi NNE 5.8 mph - N/A   Overcast
12:53 PM 32.0 °F 27.5 °F 21.9 °F 66% 29.93 in 10.0 mi North 4.6 mph - N/A   Overcast
1:53 PM 32.0 °F 25.6 °F 23.0 °F 69% 29.93 in 10.0 mi NNE 6.9 mph - 0.00 in   Overcast
2:53 PM 32.0 °F 26.4 °F 24.1 °F 73% 29.96 in 10.0 mi NNE 5.8 mph - 0.00 in   Overcast
3:34 PM 30.2 °F 24.3 °F 26.6 °F 86% 29.91 in 2.0 mi NNE 5.8 mph - 0.00 in Snow Light Snow
3:41 PM 30.2 °F 25.4 °F 26.6 °F 86% 29.91 in 1.8 mi NNE 4.6 mph - 0.00 in Snow Light Snow
3:53 PM 30.0 °F 25.2 °F 27.0 °F 88% 29.98 in 1.2 mi NNE 4.6 mph - 0.00 in Snow Light Snow
4:10 PM 30.2 °F 25.4 °F 26.6 °F 86% 29.92 in 1.5 mi NNE 4.6 mph - 0.00 in Snow Light Snow
4:20 PM 30.2 °F 24.3 °F 26.6 °F 86% 29.93 in 1.8 mi North 5.8 mph - N/A Snow Light Snow
4:36 PM 30.2 °F 22.6 °F 26.6 °F 86% 29.94 in 2.5 mi North 8.1 mph - 0.00 in Snow Light Snow
4:45 PM 30.2 °F 23.4 °F 26.6 °F 86% 29.95 in 5.0 mi North 6.9 mph - 0.00 in   Overcast
4:53 PM 30.2 °F 23.4 °F 26.6 °F 86% 29.95 in 6.0 mi North 6.9 mph - N/A   Overcast
5:49 PM 30.2 °F 24.3 °F 26.6 °F 86% 29.98 in 4.0 mi North 5.8 mph - 0.00 in Snow Light Snow
5:53 PM 30.0 °F 21.7 °F 27.0 °F 88% 30.05 in 4.0 mi North 9.2 mph - 0.00 in Snow Light Snow
6:07 PM 30.2 °F 22.6 °F 26.6 °F 86% 29.99 in 6.0 mi NNE 8.1 mph - 0.00 in Snow Light Snow
6:35 PM 30.2 °F 21.9 °F 24.8 °F 80% 30.00 in 10.0 mi North 9.2 mph - 0.00 in   Overcast
6:53 PM 30.0 °F 21.1 °F 25.0 °F 82% 30.08 in 7.0 mi NNE 10.4 mph - 0.00 in Snow Light Snow
7:17 PM 28.4 °F 18.5 °F 24.8 °F 86% 30.03 in 6.0 mi North 11.5 mph - 0.00 in Snow Light Snow
7:53 PM 28.9 °F 21.1 °F 25.0 °F 85% 30.10 in 10.0 mi NNE 8.1 mph - 0.00 in   Overcast
8:53 PM 28.9 °F 21.9 °F 24.1 °F 82% 30.14 in 10.0 mi NNE 6.9 mph - 0.00 in   Overcast
9:46 PM 28.4 °F 19.1 °F 24.8 °F 86% 30.10 in 2.5 mi North 10.4 mph - 0.00 in Snow Light Snow
9:53 PM 28.0 °F 18.6 °F 24.1 °F 85% 30.17 in 2.0 mi North 10.4 mph - 0.00 in Snow Light Snow
10:15 PM 28.4 °F 19.1 °F 24.8 °F 86% 30.12 in 3.0 mi North 10.4 mph - 0.00 in Snow Light Snow
10:32 PM 28.4 °F 18.5 °F 24.8 °F 86% 30.12 in 1.8 mi North 11.5 mph - 0.00 in Snow Light Snow
10:42 PM 28.4 °F 18.5 °F 24.8 °F 86% 30.13 in 2.0 mi North 11.5 mph - 0.00 in Snow Light Snow
10:51 PM 28.4 °F 20.4 °F 24.8 °F 86% 30.13 in 4.0 mi North 8.1 mph - 0.00 in Snow Light Snow
10:53 PM 28.0 °F 19.3 °F 24.1 °F 85% 30.20 in 4.0 mi North 9.2 mph - 0.00 in Snow Light Snow
11:53 PM 28.0 °F 20.0 °F 23.0 °F 81% 30.23 in 10.0 mi North 8.1 mph - 0.00 in   Overcast